Location: Ch�risy
(50.2331°N, 2.9131°E)
Time: 19:31:31
(UTC+00:00)

CSL-04 Rocket - Pass Details

Date: 17 January 2021
Orbit: 806 x 860 km, 98.9° (Epoch: 27 February)

Event Time Altitude Azimuth Distance (km) Brightness Sun altitude
Rises 17:43:26 0° 133° (SE) 3,352 6.5 -13.3°
Reaches altitude 10° 17:45:57 10° 124° (SE) 2,432 5.7 -13.7°
Maximum altitude 17:50:44 34° 62° (ENE) 1,360 4.3 -14.5°
Drops below altitude 10° 17:55:36 10° 359° (N) 2,477 6.0 -15.2°
Sets 17:58:10 0° 351° (N) 3,425 6.8 -15.6°
